QZS-1 (MICHIBIKI-1)

Last updated on Mon Aug 14 2023 00:02:38 GMT+0000 (Coordinated Universal Time)

1 37158U 10045A 23224.51019722 -.00000072 00000+0 00000+0 0 9992 2 37158 42.7913 127.6971 0037647 277.2224 272.4955 0.88387770 47281
UTC large
Height (km)
Speed (km/s)
/
Latitude / Longitude
Inclination (degrees)
Orbital Period (minutes)
Azimuth
Elevation
Range (km)
Doppler Factor

Next 0 passes for location: London (51.5072 / 0.1276)

Sorry there are no passes over London.
QZS-1 (MICHIBIKI-1)